Weather observations for the past three days for
Vance Brand Airport
Imperial (Metric)
Date Time (mdt) Wind (mph) Vis. (mi.) Weather Sky Cond. Temperature (ºF) Relative Humidity Wind Chill (°F) Heat Index (°F) Pressure Precipitation (in)
Air Dwpt 6 hour altimeter (in) sea level (mb) 1 hr 3 hr 6 hr
Max. Min.
20 09:35 Calm 7.00 Partly Cloudy SCT110 75.6 51.6 43% 78 30.35 0.0
20 09:15 Calm 10.00 Mostly Cloudy BKN110 72.9 50.7 46% 30.35 0.0
20 08:55 Calm 10.00 Mostly Cloudy SCT100 BKN120 73.8 49.8 43% 30.34 0.0
20 08:35 NW 3 7.00 Fair CLR 73 49.8 44% 30.33 0.0
20 08:15 Calm 7.00 Fair CLR 67.8 52.2 57% 30.33 0.0
20 07:55 Calm 5.00 Fair with Haze CLR 66.2 52 60% 30.33 0.0
20 07:35 Calm 7.00 Partly Cloudy SCT120 67.1 51.1 57% 30.32 0.0
20 07:15 Calm 7.00 Partly Cloudy SCT120 66.9 50.9 57% 30.31 0.0
20 06:55 Calm 7.00 Mostly Cloudy BKN120 65.3 51.8 62% 30.31 0.0
20 06:35 Calm 7.00 Partly Cloudy SCT120 63.5 50.4 62% 30.3 0.0
20 06:15 SW 3 7.00 Partly Cloudy SCT120 62.1 50.5 66% 30.29 0.0
20 05:55 Calm 7.00 Fair CLR 61.9 51.8 71.6 58.1 70% 30.29 0.0
20 05:35 Calm 7.00 Fair CLR 62.1 51.4 68% 30.29 0.0
20 05:15 W 3 7.00 Fair CLR 60.1 51.4 73% 30.29 0.0
20 04:55 Calm 7.00 Fair CLR 58.8 52 78% 30.28 0.0
20 04:35 Calm 10.00 Fair CLR 59.2 51.6 76% 30.28 0.0
20 04:15 Calm 7.00 Fair CLR 59.5 52 76% 30.28 0.0
20 03:55 Calm 7.00 Fair CLR 59.9 52.3 76% 30.27 0.0
20 03:35 N 3 7.00 Fair CLR 61.5 53.6 75% 30.28 0.0
20 03:15 N 3 7.00 Fair CLR 61.7 54.3 77% 30.27 0.0
20 02:35 Calm 10.00 Fair CLR 60.8 52.7 75% 30.28 0.0
20 02:15 NW 5 10.00 Fair CLR 61.2 52.5 73% 30.28 0.0
20 01:55 Calm 10.00 Fair CLR 63.5 52 66% 30.28 0.0
20 01:35 Calm 10.00 Fair CLR 66.7 52.3 60% 30.28 0.0
20 01:15 NE 5 10.00 Fair CLR 67.6 51.3 56% 30.27 0.0
20 00:55 E 7 7.00 Fair CLR 68.2 51.8 56% 30.27 0.0
20 00:35 NE 3 7.00 Fair CLR 68.4 52.3 57% 30.26 0.0
20 00:15 Calm 10.00 Fair CLR 70.9 50.2 48% 30.26 0.0
19 23:55 Calm 10.00 Fair CLR 71.4 49.1 82.4 70 45% 30.26 0.0
19 23:35 S 5 10.00 Fair CLR 71.8 49.6 46% 30.25 0.0
19 23:15 S 3 10.00 Fair CLR 70.9 50.2 48% 30.26 0.0
19 22:35 Calm 7.00 Fair CLR 70 51.1 51% 30.3 0.0
19 22:15 W 6 10.00 Fair CLR 71.6 50 47% 30.3 0.0
19 21:55 W 5 10.00 Partly Cloudy SCT120 72.1 50.4 46% 30.31 0.0
19 21:35 NW 5 7.00 Partly Cloudy SCT120 72.9 50 45% 30.32 0.0
19 21:15 N 9 7.00 Partly Cloudy SCT120 73.4 50.9 45% 30.32 0.0
19 20:55 N 5 10.00 Fair CLR 73.4 49.8 44% 30.28 0.0
19 20:35 NW 8 10.00 Fair CLR 73.4 49.6 43% 30.27 0.0
19 20:15 N 10 10.00 Partly Cloudy SCT100 SCT120 75.9 47.5 37% 78 30.26 0.0
19 19:55 NE 13 G 17 7.00 Mostly Cloudy SCT080 SCT090 BKN120 76.6 46.9 35% 78 30.25 0.0
19 19:35 N 13 G 25 7.00 Light Rain SCT080 BKN100 BKN120 78.6 46.9 33% 79 30.26 0.0
19 19:15 N 5 5.00 Partly Cloudy with Haze SCT120 79.9 44.2 28% 79 30.24 0.0
19 18:55 NE 3 7.00 Fair CLR 80.8 43.3 27% 79 30.21 0.0
19 18:35 W 3 10.00 Fair CLR 81.1 43.7 27% 80 30.19 0.0
19 18:15 W 13 G 21 10.00 Partly Cloudy SCT110 81.9 42.6 25% 80 30.18 0.0
19 17:55 SW 10 10.00 Partly Cloudy SCT110 81.3 42.4 91.9 75.2 25% 80 30.18 0.0 0.01
19 17:35 W 9 7.00 Partly Cloudy SCT120 80.8 44.2 28% 80 30.21 0.0
19 17:15 NW 10 10.00 Partly Cloudy SCT120 80.8 45 28% 80 30.23 0.0
19 16:55 NW 16 G 25 7.00 Partly Cloudy SCT110 82.9 45 26% 81 30.23 0.0
19 16:35 NW 13 10.00 Mostly Cloudy BKN120 82.6 52.3 35% 81 30.23 0.0
19 16:15 NW 13 7.00 Mostly Cloudy BKN120 80.6 54.7 41% 80 30.22 0.0
19 15:55 NW 12 10.00 Overcast OVC110 77.7 55.8 47% 79 30.22 0.0
19 15:35 NW 13 G 17 10.00 Overcast SCT026 SCT037 OVC110 75.9 58.3 54% 78 30.22 0.0
19 15:15 N 7 10.00 Light Rain SCT034 SCT075 OVC110 78.1 49.8 37% 79 30.23 0.0
19 14:55 N 10 G 20 10.00 Mostly Cloudy SCT060 SCT080 BKN110 82.2 46.2 28% 81 30.23 0.0 0.01 0.01
19 14:35 NE 21 G 30 10.00 Overcast and Breezy SCT039 SCT060 OVC110 82.9 45 26% 81 30.23 0.0 0.01
19 14:15 E 8 7.00 Mostly Cloudy BKN120 89.4 48.9 25% 86 30.21 0.0
19 13:55 SW 7 10.00 Partly Cloudy SCT070 SCT120 86.5 47.7 26% 84 30.21 0.0
19 13:35 SW 7 10.00 Mostly Cloudy BKN120 82.8 48.6 30% 81 30.23 0.0
19 13:15 NW 7 10.00 Mostly Cloudy SCT047 SCT055 BKN120 77.7 48.7 36% 78 30.25 0.0
19 12:55 W 10 G 18 10.00 Light Rain SCT030 SCT050 BKN070 75.6 50.4 41% 78 30.24 0.0
19 12:35 NW 15 G 38 7.00 Heavy Rain SCT049 SCT070 BKN120 84.9 46.6 26% 82 30.25 0.0
19 12:15 NE 7 10.00 Partly Cloudy SCT120 90.1 43.5 20% 86 30.23 0.0
19 11:55 E 3 10.00 Fair CLR 90.7 40.3 90.7 59 17% 87 30.22 0.0
19 11:35 E 3 10.00 Partly Cloudy SCT110 85.8 45.3 24% 83 30.23 0.0
19 11:15 SW 10 7.00 Mostly Cloudy SCT095 BKN120 82.8 44.4 26% 81 30.24 0.0
19 10:55 SW 3 7.00 Partly Cloudy SCT110 81.5 46.4 29% 80 30.24 0.0
19 10:35 S 6 10.00 Partly Cloudy SCT110 81 46.6 30% 80 30.23 0.0
19 10:15 S 3 7.00 Fair CLR 80.6 48 32% 80 30.23 0.0
19 09:55 S 5 10.00 Fair CLR 77.5 50.9 39% 78 30.23 0.0
19 09:35 S 5 7.00 Fair CLR 76.1 50.5 41% 78 30.22 0.0
19 09:15 S 5 10.00 Fair CLR 75.4 53.8 47% 78 30.24 0.0
19 08:55 W 3 7.00 Partly Cloudy SCT120 71.6 52.7 51% 30.24 0.0
19 08:35 NE 5 7.00 Fair CLR 72.3 52.5 50% 30.24 0.0
19 08:15 Calm 7.00 Fair CLR 71.6 50.5 48% 30.22 0.0
19 07:55 Calm 7.00 Fair CLR 71.8 50.4 47% 30.22 0.0
19 07:35 Calm 7.00 Fair CLR 67.5 51.3 56% 30.22 0.0
19 07:15 Calm 5.00 Fair with Haze CLR 65.3 51.8 62% 30.21 0.0
19 06:55 Calm 7.00 Fair CLR 61.9 50.7 67% 30.21 0.0
19 06:35 Calm 7.00 Fair CLR 61.5 49.3 64% 30.21 0.0
19 06:15 Calm 7.00 Fair CLR 59.9 49.5 69% 30.21 0.0
19 05:55 Calm 7.00 Fair CLR 58.8 48.7 69.3 58.8 69% 30.2 0.0
19 05:35 SW 3 7.00 Fair CLR 59.9 48.6 66% 30.21 0.0
19 05:15 Calm 7.00 Fair CLR 60.6 49.3 66% 30.21 0.0
19 04:55 Calm 7.00 Fair CLR 59.9 50 70% 30.21 0.0
19 04:35 Calm 10.00 Fair CLR 59.9 50.2 70% 30.2 0.0
19 04:15 NW 3 10.00 Fair CLR 59.2 49.5 70% 30.2 0.0
19 03:55 W 3 10.00 Fair CLR 61.3 49.3 65% 30.19 0.0
19 03:35 Calm 10.00 Fair CLR 60.1 49.1 67% 30.19 0.0
19 03:15 W 5 10.00 Fair CLR 60.1 50 70% 30.2 0.0
19 02:55 Calm 7.00 Fair CLR 61.9 50.9 67% 30.19 0.0
19 02:35 Calm 7.00 Fair CLR 62.6 51.6 68% 30.2 0.0
19 02:15 Calm 10.00 Fair CLR 63.5 51.6 65% 30.2 0.0
19 01:55 SW 5 7.00 Fair CLR 64.4 50.9 62% 30.2 0.0
19 01:35 SW 3 7.00 Fair CLR 65.5 50.2 58% 30.21 0.0
19 01:15 NW 3 7.00 Fair CLR 67.5 48.9 52% 30.21 0.0
19 00:55 W 5 10.00 Fair CLR 67.8 48.7 51% 30.21 0.0
19 00:35 W 3 10.00 Fair CLR 68 49.6 52% 30.22 0.0
19 00:15 W 5 10.00 Fair CLR 64.9 51.8 63% 30.22 0.0
18 23:55 W 3 10.00 Fair CLR 65.8 52.2 86.4 65.5 62% 30.22 0.0
18 23:35 NW 6 10.00 Fair CLR 66 52.2 61% 30.23 0.0
18 23:15 W 5 10.00 Fair CLR 68 53.6 60% 30.23 0.0
18 22:55 SW 5 10.00 Fair CLR 70.3 53.2 55% 30.24 0.0
18 22:35 W 3 10.00 Fair CLR 72.9 53.6 51% 30.24 0.0
18 22:15 S 5 10.00 Fair CLR 70 54.7 58% 30.24 0.0
18 21:55 W 6 10.00 Fair CLR 69.6 54.3 58% 30.23 0.0
18 21:35 Calm 10.00 Fair CLR 70.5 55 58% 30.24 0.0
18 21:15 Calm 10.00 Fair CLR 70.7 56.3 60% 30.23 0.0
18 20:55 W 6 10.00 Fair CLR 73.8 55.8 53% 30.22 0.0
18 20:35 W 3 7.00 Fair CLR 73.4 58.1 59% 30.21 0.0
18 20:15 NW 3 7.00 Fair CLR 77.5 53.6 44% 79 30.21 0.0
18 19:55 N 7 10.00 Fair CLR 79 55.4 44% 80 30.21 0.0
18 19:35 N 3 7.00 Fair CLR 79.9 54.5 42% 80 30.2 0.0
18 19:15 W 3 10.00 Fair CLR 80.6 56.3 43% 81 30.19 0.0
18 18:55 Calm 10.00 Fair CLR 84.7 48.7 29% 82 30.18 0.0
18 18:35 N 6 10.00 Fair CLR 86.2 50.5 29% 84 30.19 0.0
18 18:15 Calm 10.00 Fair CLR 86 47.1 26% 83 30.19 0.0
18 17:55 NE 5 7.00 Fair CLR 83.7 49.6 92.7 71.1 31% 82 30.2 0.0
18 17:35 NE 5 7.00 Fair CLR 80.8 52.2 37% 80 30.21 0.0
18 17:15 W 7 10.00 Fair CLR 79.5 52 38% 79 30.22 0.0
18 16:55 W 7 10.00 Partly Cloudy SCT110 74.8 55.9 52% 30.23 0.0
18 16:35 N 3 10.00 Mostly Cloudy BKN110 71.1 55.6 58% 30.26 0.0
18 16:15 NW 8 10.00 Light Rain OVC100 73.4 54.5 52% 30.26 0.0
18 15:55 W 15 G 22 10.00 Mostly Cloudy SCT090 BKN120 83.3 54.5 37% 82 30.27 0.0
18 15:35 N 5 10.00 Partly Cloudy SCT120 85.3 50 30% 83 30.24 0.0
18 15:15 W 3 10.00 Partly Cloudy SCT120 86.4 49.5 28% 84 30.24 0.0
18 14:55 NE 5 10.00 Fair CLR 88.9 49.1 25% 86 30.22 0.0
18 14:35 N 5 10.00 Fair CLR 90.7 49.8 25% 88 30.23 0.0
18 14:15 N 6 10.00 Fair CLR 91 51.3 26% 88 30.23 0.0
18 13:55 SE 3 10.00 Fair CLR 90.1 50.2 25% 87 30.23 0.0
18 13:35 Calm 10.00 Fair CLR 89.6 50.2 26% 87 30.24 0.0
18 13:15 E 3 10.00 Fair CLR 87.6 51.3 29% 85 30.24 0.0
18 12:55 NE 3 10.00 Fair CLR 86.5 50.9 29% 84 30.25 0.0
18 12:35 N 6 10.00 Partly Cloudy SCT120 84 50.9 32% 82 30.26 0.0
18 12:15 Calm 7.00 Fair CLR 82.2 50.2 33% 81 30.26 0.0
18 11:55 NW 3 10.00 Fair CLR 82.6 50.9 82.9 56.5 33% 81 30.28 0.0
18 11:35 Calm 10.00 Fair CLR 82.6 51.3 34% 81 30.27 0.0
18 11:15 Calm 10.00 Fair CLR 81.7 51.4 35% 81 30.28 0.0
18 10:55 NE 3 10.00 Fair CLR 79.7 51.1 37% 79 30.28 0.0
18 10:35 Calm 10.00 Fair CLR 78.3 51.3 39% 79 30.28 0.0
18 10:15 Calm 10.00 Fair CLR 76.5 51.3 41% 78 30.28 0.0
18 09:55 Calm 10.00 Fair CLR 74.5 52.9 47% 30.28 0.0
18 09:35 Calm 10.00 Fair CLR 74.1 53.2 48% 30.29 0.0
18 09:15 Calm 10.00 Fair CLR 72.5 53.4 51% 30.29 0.0
18 08:55 NE 3 10.00 Fair CLR 70.7 54 56% 30.29 0.0
18 08:35 Calm 10.00 Fair CLR 69.8 53.8 57% 30.29 0.0
18 08:15 Calm 10.00 Fair CLR 68.7 54 59% 30.29 0.0
18 07:55 Calm 10.00 Fair CLR 67.1 53.2 61% 30.29 0.0
18 07:35 Calm 10.00 Fair CLR 65.1 53.1 65% 30.29 0.0
18 07:15 Calm 10.00 Fair CLR 62.2 52.2 70% 30.28 0.0
18 06:55 SW 3 10.00 Fair CLR 59.5 52.3 77% 30.28 0.0
18 06:35 W 5 10.00 Fair CLR 57.2 50.9 80% 30.28 0.0
18 06:15 Calm 10.00 Fair CLR 57.2 50.9 80% 30.28 0.0
18 05:55 Calm 10.00 Fair CLR 57.2 50.9 63.9 56.3 80% 30.28 0.0
18 05:35 Calm 10.00 Fair CLR 57.4 51.4 81% 30.28 0.0
18 05:15 Calm 10.00 Fair CLR 58.6 51.8 78% 30.28 0.0
18 04:55 Calm 10.00 Fair CLR 57 51.1 81% 30.27 0.0
18 04:35 Calm 10.00 Fair CLR 57.9 51.3 79% 30.27 0.0
18 04:15 Calm 10.00 Fair CLR 57.9 52.5 82% 30.27 0.0
18 03:55 N 3 10.00 Fair CLR 56.5 50.9 82% 30.27 0.0
18 03:35 Calm 10.00 Fair CLR 57.7 51.8 81% 30.27 0.0
18 03:15 Calm 10.00 Fair CLR 58.1 51.8 80% 30.28 0.0
18 02:55 W 3 10.00 Fair CLR 58.3 51.8 79% 30.29 0.0
18 02:35 Calm 7.00 Fair CLR 58.3 51.8 79% 30.29 0.0
18 02:15 W 6 10.00 Fair CLR 59 52 78% 30.3 0.0
18 01:55 Calm 10.00 Fair CLR 60.4 52.5 75% 30.31 0.0
18 01:35 Calm 10.00 Fair CLR 60.6 52.9 76% 30.32 0.0
18 01:15 Calm 10.00 Fair CLR 61.5 53.8 76% 30.31 0.0
18 00:55 Calm 10.00 Fair CLR 61.9 53.4 74% 30.32 0.0
18 00:35 Calm 10.00 Fair CLR 62.8 52.7 70% 30.33 0.0
18 00:15 NW 7 10.00 Fair CLR 62.4 52.5 70% 30.33 0.0
17 23:55 SW 5 10.00 Fair CLR 65.1 51.3 86.4 65.1 61% 30.33 0.0
17 23:35 Calm 10.00 Fair CLR 65.7 50.5 58% 30.35 0.0
17 23:15 Calm 10.00 Partly Cloudy SCT120 68.2 50.7 54% 30.36 0.0
17 22:55 SE 5 10.00 Partly Cloudy SCT120 68.9 50.5 52% 30.35 0.0
17 22:35 S 5 10.00 Fair CLR 68.2 50.9 54% 30.36 0.0
17 22:15 S 5 10.00 Fair CLR 68.5 51.3 54% 30.36 0.0
17 21:55 SW 6 10.00 Fair CLR 68.5 51.4 55% 30.38 0.0
17 21:35 SW 6 10.00 Fair CLR 68.9 50.5 52% 30.38 0.0
17 21:15 Calm 10.00 Fair CLR 69.6 50.5 51% 30.39 0.0
17 20:55 E 5 10.00 Partly Cloudy SCT080 69.6 50.7 51% 30.39 0.0
17 20:35 E 8 10.00 Mostly Cloudy BKN080 71.4 50.4 48% 30.39 0.0
17 20:15 E 8 10.00 Mostly Cloudy BKN080 72 49.5 45% 30.38 0.0
17 19:55 E 15 G 22 10.00 Mostly Cloudy BKN080 BKN110 73.4 47.5 40% 30.38 0.0
17 19:35 NE 9 G 18 10.00 Mostly Cloudy BKN100 74.7 49.6 41% 30.36 0.0
17 19:15 NE 20 G 24 10.00 Overcast OVC110 75.7 50.2 41% 78 30.33 0.0
17 18:55 E 18 G 26 10.00 Mostly Cloudy BKN110 77 49.5 38% 78 30.3 0.0
17 18:35 E 21 G 29 10.00 Fair and Breezy CLR 79.2 47.3 33% 79 30.27 0.0
17 18:15 E 8 10.00 Fair CLR 86 41.4 21% 83 30.25 0.0
17 17:55 Calm 10.00 Fair CLR 86.4 40.8 91 77.5 20% 83 30.24 0.0
17 17:35 Calm 10.00 Fair CLR 87.6 41 19% 84 30.23 0.0
17 17:15 S 3 10.00 Partly Cloudy SCT120 86.4 41.4 21% 83 30.23 0.0
17 16:55 SW 3 10.00 Partly Cloudy SCT120 86.5 40.6 20% 83 30.23 0.0
17 16:35 W 6 10.00 Fair CLR 88.7 42.1 20% 85 30.24 0.0
17 16:15 W 7 10.00 Fair CLR 91 44.8 20% 87 30.24 0.0
17 15:55 W 5 7.00 Fair CLR 88.7 45 22% 85 30.24 0.0
17 15:35 SW 7 10.00 Fair CLR 88.7 45.3 22% 85 30.25 0.0
17 15:15 W 6 7.00 Partly Cloudy SCT031 SCT040 SCT048 86.5 48.6 27% 84 30.25 0.0
17 14:55 W 9 10.00 Light Rain SCT031 BKN075 OVC100 79.9 56.1 44% 80 30.27 0.0
17 14:35 W 5 G 12 10.00 Light Rain OVC100 78.1 53.1 42% 79 30.29 0.0
17 14:15 NW 9 10.00 Overcast OVC110 80.6 50.7 35% 80 30.31 0.0
17 13:55 NW 8 7.00 Mostly Cloudy BKN120 80.6 51.1 36% 80 30.3 0.0
17 13:35 NW 6 7.00 Mostly Cloudy BKN120 81.3 50 34% 80 30.3 0.0
17 13:15 NE 5 10.00 Fair CLR 82.9 47.3 29% 81 30.3 0.0
17 12:55 Calm 10.00 Fair CLR 85.1 47.5 27% 83 30.3 0.0
17 12:35 Calm 10.00 Fair CLR 85.3 48 27% 83 30.3 0.0
17 12:15 E 6 10.00 Fair CLR 84.4 48 28% 82 30.31 0.0
17 11:55 E 8 10.00 Fair CLR 84 48.7 84.2 61 29% 82 30.31 0.0
17 11:35 E 7 10.00 Fair CLR 81.9 48.9 32% 81 30.31 0.0
17 11:15 E 6 10.00 Fair CLR 80.8 48.4 32% 80 30.32 0.0
17 10:55 Calm 10.00 Fair CLR 81 48 32% 80 30.32 0.0
17 10:35 S 3 10.00 Fair CLR 78.8 47.8 34% 79 30.33 0.0
17 10:15 Calm 10.00 Fair CLR 76.1 48.4 38% 78 30.34 0.0
17 09:55 Calm 10.00 Fair CLR 75.7 48.2 38% 78 30.34 0.0
Date Time (mdt) Wind (mph) Vis. (mi.) Weather Sky Cond. Air Dwpt Max. Min. Relative Humidity Wind Chill (°F) Heat Index (°F) altimeter (in) sea level (mb) 1 hr 3 hr 6 hr
6 hour
Temperature (ºF) Pressure Precipitation (in)